User: anonymous
Location: Unspecified
(0.0000°N, 0.0000°E)
Time: 04:33:19
(UTC+02:00)
Language:

ATLAS 3B CENTAUR R/B - Orbit

View from above orbital plane
View from above orbital plane
View from above satellite
View from above satellite

Ground track
Ground track

The orbit data is extracted from the following two-line orbital elements,

1 28118U 03057B   14209.05068306  .00045121  00000-0  10344-2 0  6678
2 28118 028.1739 041.1325 3866631 240.9089 317.7243 07.76588096198778
Epoch (UTC): 28 July 2014 01:12:59
Eccentricity: 0.3866631
inclination: 28.1739°
perigee height: 228 km
apogee height: 8558 km
right ascension of ascending node: 41.1325°
argument of perigee: 240.9089°
revolutions per day: 7.76588096
mean anomaly at epoch: 317.7243°
orbit number at epoch: 19877

The dashed part of the orbit path shows where the satellite is in the earth's shadow,  

DLR